User: anonymous   Login
Location: Okie-Tex Star Party
(36.8978°N, 102.9520°W)
Time: 13:58:18
(UTC-05:00)
Language:

Hamsat - Orbit

View from above orbital plane
View from above orbital plane
View from above satellite
View from above satellite

Ground track
Ground track

The orbit data is extracted from the following two-line orbital elements,

1 28650U 05017B   15244.90530612 +.00000818 +00000-0 +95254-4 0  9992
2 28650 097.5806 233.9261 0025216 134.7249 225.6027 14.87601427558787
Epoch (UTC): 01 September 2015 21:43:38
Eccentricity: 0.0025216
inclination: 97.5806°
perigee height: 588 km
apogee height: 623 km
right ascension of ascending node: 233.9261°
argument of perigee: 134.7249°
revolutions per day: 14.87601427
mean anomaly at epoch: 225.6027°
orbit number at epoch: 55878

The dashed part of the orbit path shows where the satellite is in the earth's shadow,  

DLR